Location: Lanoux
(43.1180°N, 1.4255°E)
Time: 08:22:13
(UTC+00:00)

ARIANE 6 FM1 Upper Stage - Pass Details

Date: 17 February 2026
Orbit: 523 x 607 km, 62.0° (Epoch: 7 March)

Event Time Altitude Azimuth Distance (km) Brightness Sun altitude
Rises 19:16:16 0° 319° (NW) 2,658 6.8 -20.4°
Reaches altitude 10° 19:18:27 10° 317° (NW) 1,767 5.8 -20.8°
Maximum altitude 19:22:23 67° 235° (SW) 573 2.7 -21.5°
Enters shadow 19:23:21 47° 172° (S) 705 3.0 -21.7°
